Location: Ward Pound Ridge Reservation
(41.2500°N, 73.6000°W)
Time: 05:43:45
(UTC-04:00)

Tiangong 1 - Pass Details

Date: 07 October 2017
Orbit: 294 x 321 km, 42.8° (Epoch: 17 October)

Event Time Altitude Azimuth Distance (km) Brightness Sun altitude
Rises 18:46:41 0° 241° (WSW) 2,038 6.1 -4.7°
Reaches altitude 10° 18:48:42 10° 236° (SW) 1,205 4.7 -5.1°
Maximum altitude 18:51:19 49° 159° (SSE) 410 1.1 -5.6°
Drops below altitude 10° 18:53:55 10° 82° (E) 1,193 2.9 -6.1°
Enters shadow 18:54:13 - 81° (E) 1,316 3.1 -6.1°
